Погода в Ширяеве

Россия / Самарская область     53°24′52″N   50°01′08″E
темп.,
°C
ветер,
м/с
пор.,
м/с
влажн.,
%
обл.,
%
осадки,
мм/ч
давл.,
гПа
погр.,
м
13 апреля, вт
вт1301:00+8в229313 0.0 103526
04:00+8вюв229245 0.0 103517
07:00+8вюв229070 0.0 103626
10:00+13юв356668 0.0 1035351
13:00+17юв355470 0.0 1034764
16:00+19юв354811 0.0 10331119
19:00+15юв22595 0.0 103217
22:00+12юв22729 0.0 103215
14 апреля, ср
ср1401:00+9ююв22785 0.0 103212
04:00+8юв22815 0.0 103214
07:00+7вюв23935 0.0 103178
10:00+12юв467658 0.0 1030491
13:00+15вюв56645 0.0 1028755
16:00+17вюв56581 0.0 1026995
19:00+14вюв36720 0.0 1025131
22:00+11юв22830 0.0 102521
15 апреля, чт
чт1501:00+9юв22860 0.0 102413
04:00+8юв22850 0.0 102413
07:00+8юв22820 0.0 102335
10:00+14юв34595 0.0 1022344
13:00+18юв34480 0.0 1021832
16:00+20ююв34400 0.0 10191479
19:00+16юв22533 0.0 101812
22:00
16 апреля, пт
пт1601:00+12ю116255 0.0 101710
04:00+10вюв116391 0.0 101710
07:00+11вюв1163100 0.0 101710
10:00+15в1247100 0.0 1016294
13:00+19всв1136100 0.0 10161147
16:00+19св223666 0.0 10161974
19:00+16ссв4953100 0.0 1016278
22:00+11ссв510815 0.1 1017365
17 апреля, сб
сб1701:00+9ссв510851 0.0 1018473
04:00+6ссв510815 0.0 1019462
07:00+5ссв510825 0.0 1021549
10:00+8ссв79512 0.0 10211051
13:00+11ссв79382 0.0 10221619
16:00+11ссв79355 0.0 10221892
19:00+7ссв710400 0.0 10251278
22:00+4ссв712400 0.0 1027856